Change the Weather History Date:

Saturday, April 26, 2014

  Actual Average Record
Temperature  
Mean Temperature 94 °F -  
Max Temperature 106 °F 99 °F 106 °F (2014)
Min Temperature 82 °F 74 °F 64 °F (2004)
Cooling Degree Days 29    
Growing Degree Days 44 (Base 50)    
Moisture  
Dew Point 42 °F    
Average Humidity 15    
Maximum Humidity 29    
Minimum Humidity 5    
Precipitation  
Precipitation 0.00 in 0.00 in - ()
Sea Level Pressure  
Sea Level Pressure 29.73 in    
Wind  
Wind Speed 8 mph ()    
Max Wind Speed 13 mph    
Max Gust Speed -    
Visibility 6.0 miles    
Events      
Averages and records for this station are not official NWS values.
T = Trace of Precipitation, MM = Missing Value Source: Averaged Metar Reports

Daily Weather History Graph

Daily Weather History Graph

Search for Another Location

Airport or City:

Trip Planner

Search our weather history database for the weather conditions in past years. The results will help you decide how hot, cold, wet, or windy it might be!

Date:

Astronomy

Apr. 26, 2014 Rise Set
Actual Time 5:18 AM EET 6:15 PM EET
Civil Twilight 4:54 AM EET 6:38 PM EET
Nautical Twilight 4:27 AM EET 7:06 PM EET
Astronomical Twilight 3:58 AM EET 7:35 PM EET
Moon 3:08 AM EET (4/26) 3:39 PM EET (4/26)
Length of Visible Light 13h 43m
Length of Day
12h 56m
Waning Crescent, 10% of the Moon is Illuminated
Apr 26
Waning Crescent
Apr 29
New
May 7
First Quarter
May 14
Full
May 21
Last Quarter

Hourly Weather History & Observations

Time (EET) Temp. Heat Index Dew Point Humidity Pressure Visibility Wind Dir Wind Speed Gust Speed Precip Events Conditions
12:00 AM 89.6 °F 87.3 °F 53.6 °F 29% 29.71 in - WNW 4.6 mph - N/A   Clear
1:00 AM 87.8 °F - 48.2 °F 25% 29.71 in - WNW 11.5 mph - N/A   Clear
2:00 AM 88 °F - 41 °F 11% 29.68 in 6 mi North 9.2 mph - -   Partly Cloudy
2:00 AM 87.8 °F - 41.0 °F 19% 29.71 in - North 9.2 mph - N/A   Clear
3:00 AM 87.8 °F - 41.0 °F 19% 29.71 in - North 6.9 mph - N/A   Clear
4:00 AM 86.0 °F - 39.2 °F 19% 29.71 in - North 6.9 mph - N/A   Clear
5:00 AM 83 °F - 42 °F 14% 29.70 in 6 mi North 5.8 mph - -   Scattered Clouds
5:00 AM 84.2 °F - 41.0 °F 22% 29.71 in - North 5.8 mph - N/A   Clear
6:00 AM 82.4 °F - 42.8 °F 25% 29.74 in - North 8.1 mph - N/A   Clear
7:00 AM 86.0 °F - 44.6 °F 23% 29.77 in - North 8.1 mph - N/A   Clear
8:00 AM 89 °F - 44 °F 12% 29.75 in 6 mi North 10.4 mph - -  
8:00 AM 89.6 °F - 44.6 °F 21% 29.77 in - North 10.4 mph - N/A   Clear
9:00 AM 93.2 °F - 44.6 °F 19% 29.80 in - North 12.7 mph - N/A   Clear
10:00 AM 96.8 °F - 44.6 °F 17% 29.80 in - North 12.7 mph - N/A   Clear
11:00 AM 100 °F - 43 °F 7% 29.74 in 6 mi North 12.7 mph - -  
11:00 AM 100.4 °F - 42.8 °F 14% 29.77 in - North 12.7 mph - N/A   Clear
12:00 PM - - - N/A% 29.77 in - North - - N/A   Clear
1:00 PM 104.0 °F - 42.8 °F 12% 29.74 in - NNE 10.4 mph - N/A   Clear
2:00 PM 106 °F - 40 °F 5% 29.66 in 6 mi North 9.2 mph - -  
2:00 PM 105.8 °F - 41.0 °F 11% 29.71 in - North 9.2 mph - N/A   Clear
3:00 PM 105.8 °F - 37.4 °F 10% 29.68 in - NNE 8.1 mph - N/A   Clear
4:00 PM 105.8 °F - 41.0 °F 11% 29.68 in - North 10.4 mph - N/A   Clear
5:00 PM 103 °F - 39 °F 5% 29.65 in 6 mi NNE 12.7 mph - -  
5:00 PM 104.0 °F - 39.2 °F 11% 29.68 in - NNE 12.7 mph - N/A   Clear
8:00 PM 94 °F - 39 °F 8% 29.73 in 6 mi NNW 9.2 mph - -  
8:00 PM 93.2 °F - 39.2 °F 15% 29.77 in - NNW 9.2 mph - N/A   Clear
9:00 PM 91.4 °F - 39.2 °F 16% 29.80 in - North 9.2 mph - N/A   Clear
10:00 PM 87.8 °F - 37.4 °F 17% 29.80 in - North 10.4 mph - N/A   Clear
11:00 PM 86 °F - 37 °F 10% 29.78 in 6 mi NNE 5.8 mph - -  
11:00 PM 86.0 °F - 37.4 °F 18% 29.80 in - NNE 5.8 mph - N/A   Clear